SCP
0 0 0 0 0 0 0 0 0 0 0 0 0 0 0 0 0 0 0 0 0 0 0 0 0 0 0 0 0 0 0 0 0 0 0 0 0 0
0 0 0 0 0 0 0 0 0 0 0 0 0 0 0 0 0 0 0 0 0 0 0 0 0 0 0 0 0 0 0 0 0 0 0 0 0 0
0 0 0 0 0 0 0 0 0 0 0 0 0 0 0 0 0 0 0 0 0 0 0 0 0 0 0 0 0 0 0 0 0 0 0 0 0 0
0 0 0 0 0 0 0 0 0 0 0 0 0 0 0 0 0 0 0 0 0 0 0 0 0 0 0 0 0 0 0 0 0 0 0 0 0 0
0 0 0 0 0 0 0 0 0 0 0 0 0 0 0 0 0 0 0 0 0 0 0 0 0 0 0 0 0 0 0 0 0 0 0 0 0 0
0 0 0 0 0 0 0 0 0 0 0 0 0 0 0 0 0 0 0 0 0 0 0 0 0 0 0 0 0 0 0 0 0 0 0 0 0 0
0 0 0 0 0 0 0 0 0 0 0 0 0 0 0 0 0 0 0 0 0 0 0 0 0 0 0 0 0 0 0 0 0 0 0 0 0 0
0 0 0 0 0 0 0 0 0 0 0 0 0 0 0 0 0 0 0 0 0 0 0 0 0 0 0 0 0 0 0 0 0 0 0 0 0 0
0 0 0 0 0 0 0 0 0 0 0 0 0 0 0 0 0 0 0 0 0 0 0 0 0 0 0 0 0 0 0 0 0 0 0 0 0 0
0 0 0 0 0 0 0 0 0 0 0 0 0 0 0 0 0 0 0 0 0 0 0 0 0 0 0 0 0 0 0 0 0 0 0 0 0 0
0 0 0 0 0 0 0 0 0 0 0 0 0 0 0 0 0 0 0 0 0 0 0 0 0 0 0 0 0 0 0 0 0 0 0 0 0 0
0 0 0 0 0 0 0 0 0 0 0 0 0 0 0 0 0 0 0 0 0 0 0 0 0 0 0 0 0 0 0 0 0 0 0 0 0 0
0 0 0 0 0 0 0 0 0 0 0 0 0 0 0 0 0 0 0 0 0 0 0 0 0 0 0 0 0 0 0 0 0 0 0 0 0 0
0 0 0 0 0 0 0 0 0 0 0 0 0 0 0 0 0 0 0 0 0 0 0 0 0 0 0 0 0 0 0 0 0 0 0 0 0 0
0 0 0 0 0 0 0 0 0 0 0 0 0 0 0 0 0 0 0 0 0 0 0 0 0 0 0 0 0 0 0 0 0 0 0 0 0 0
0 0 0 0 0 0 0 0 0 0 0 0 0 0 0 0 0 0 0 0 0 0 0 0 0 0 0 0 0 0 0 0 0 0 0 0 0 0
0 0 0 0 0 0 0 0 0 0 0 0 0 0 0 0 0 0 0 0 0 0 0 0 0 0 0 0 0 0 0 0 0 0 0 0 0 0
0 0 0 0 0 0 0 0 0 0 0 0 0 0 0 0 0 0 0 0 0 0 0 0 0 0 0 0 0 0 0 0 0 0 0 0 0 0
0 0 0 0 0 0 0 0 0 0 0 0 0 0 0 0 0 0 0 0 0 0 0 0 0 0 0 0 0 0 0 0 0 0 0 0 0 0
0 0 0 0 0 0 0 0 0 0 0 0 0 0 0 0 0 0 0 0 0 0 0 0 0 0 0 0 0 0 0 0 0 0 0 0 0 0
0 0 0 0 0 0 0 0 0 0 0 0 0 0 0 0 0 0 0 0 0 0 0 0 0 0 0 0 0 0 0 0 0 0 0 0 0 0
0 0 0 0 0 0 0 0 0 0 0 0 0 0 0 0 0 0 0 0 0 0 0 0 0 0 0 0 0 0 0 0 0 0 0 0 0 0
0 0 0 0 0 0 0 0 0 0 0 0 0 0 0 0 0 0 0 0 0 0 0 0 0 0 0 0 0 0 0 0 0 0 0 0 0 0
Wind_Speed
6 5 4 3 2 2 1 2 4 3 4 3 3 5 4 5 9 6 6 8 8 7 6 7 7 8 9 9 10 10 10 10 11 11 11 10 9 7
5 5 4 2 2 2 1 0 2 3 3 3 3 5 6 7 9 4 7 12 9 8 6 6 5 6 6 7 7 8 8 8 9 9 10 11 11 10
4 5 4 3 2 1 1 1 1 1 3 3 3 4 6 6 4 5 6 5 5 8 7 6 4 4 5 5 6 6 7 7 7 8 9 9 10 11
5 5 5 3 2 1 1 1 1 2 2 3 2 3 5 7 7 6 6 7 6 9 9 7 5 4 3 4 4 5 5 6 6 7 7 8 9 10
4 5 5 5 3 2 1 1 2 2 2 2 3 2 3 6 7 5 5 3 8 8 9 8 7 5 4 4 3 3 4 5 6 7 7 8 8 9
5 5 5 5 5 4 3 3 2 3 3 2 3 2 2 3 6 5 4 3 4 6 7 8 8 7 6 5 5 4 4 5 6 6 7 7 7 8
6 6 6 8 8 6 4 4 4 3 3 3 4 3 3 3 5 5 5 4 4 4 4 4 5 4 5 6 7 7 5 5 6 6 6 6 6 7
8 7 8 9 12 13 12 10 7 6 4 4 4 5 7 6 4 4 4 4 4 5 5 5 5 5 5 5 9 10 8 7 6 6 6 6 6 6
6 7 7 8 11 8 11 13 12 14 12 7 6 7 6 7 8 7 6 6 5 5 5 5 5 6 5 8 16 13 11 10 8 8 7 7 6 5
5 5 6 6 8 8 7 7 7 8 10 9 8 7 6 6 10 10 9 6 4 3 5 4 4 4 3 5 16 15 12 11 10 9 9 8 7 6
5 4 3 3 4 7 5 5 5 5 5 8 8 5 3 4 5 6 6 5 4 3 4 3 4 4 3 4 8 14 12 11 11 10 10 9 8 7
2 1 2 2 3 4 3 4 5 4 3 3 4 5 5 4 6 6 7 6 4 4 5 4 3 4 3 3 5 6 7 9 11 11 11 10 10 5
1 1 0 4 3 3 4 3 4 3 2 3 3 4 3 3 4 4 4 4 4 3 5 7 4 4 5 3 4 5 6 5 5 6 10 12 12 8
1 1 2 4 2 2 2 2 2 1 1 1 1 2 3 3 3 4 3 2 2 2 3 6 4 5 5 4 3 4 6 6 6 6 6 9 11 12
1 2 4 4 2 1 2 2 2 1 1 1 1 1 2 3 3 2 2 1 0 0 0 3 2 3 4 4 4 4 4 6 8 8 8 8 7 6
2 2 3 2 1 1 3 2 2 1 1 0 0 0 1 1 2 2 2 2 1 1 1 0 0 2 2 2 2 4 5 5 6 7 7 7 8 8
1 3 2 2 2 2 2 2 1 1 1 0 1 1 1 1 1 2 2 2 2 2 1 1 0 1 1 1 2 3 4 5 5 7 6 5 6 8
1 1 2 2 2 2 2 1 1 1 1 1 1 1 1 2 2 2 2 3 3 3 3 2 2 1 2 3 5 4 3 4 5 6 6 6 6 5
1 1 1 0 0 1 1 1 0 0 0 1 1 1 1 2 2 3 3 3 4 4 4 3 4 4 5 5 4 8 6 4 3 5 6 6 6 6
3 3 2 2 2 2 1 1 1 0 0 1 1 1 1 2 2 2 3 4 4 4 3 4 5 7 8 5 3 4 10 7 5 6 5 5 5 4
3 3 3 3 3 2 2 1 1 1 1 1 1 1 2 2 2 3 3 4 4 3 4 5 6 9 4 1 3 4 4 8 6 3 5 5 5 4
3 2 2 3 3 2 2 2 2 2 2 1 1 2 2 2 2 3 3 3 3 4 4 3 1 3 4 6 7 6 4 2 4 4 1 2 3 5
3 3 3 3 3 3 2 3 3 2 2 2 2 2 2 2 2 2 3 3 3 3 3 2 1 2 3 4 5 5 5 3 2 3 3 4 6 8
Wind_Direction
187 195 208 206 235 267 238 150 150 173 215 206 159 176 160 131 165 170 156 156 136 118 99 82 74 70 69 66 63 59 58 56 57 56 57 57 55 56
179 182 186 187 208 253 273 217 148 162 202 211 187 169 158 151 183 185 151 157 148 138 124 106 91 83 78 72 64 55 50 52 57 61 63 62 61 62
172 165 166 166 200 227 271 290 247 175 204 230 201 162 152 155 150 144 157 162 159 157 149 137 120 103 92 83 73 61 54 56 62 68 74 72 70 68
160 153 152 155 178 202 250 262 262 244 212 222 209 175 170 165 159 177 176 177 157 171 167 163 155 143 123 108 91 78 71 68 65 68 77 80 78 74
162 160 159 159 172 184 209 241 256 269 248 220 217 201 191 170 160 184 189 167 162 169 175 178 177 173 164 146 124 110 99 90 81 74 72 79 81 78
177 178 178 178 184 184 203 223 236 252 257 249 225 194 208 181 163 174 190 186 165 170 179 177 186 189 190 180 167 152 137 122 107 94 84 78 80 85
193 199 202 202 207 206 209 213 218 225 235 237 231 193 193 191 191 178 181 178 199 173 159 173 174 190 200 202 190 176 163 151 136 120 106 95 90 91
201 206 210 211 219 223 227 228 223 224 225 229 231 211 203 200 196 183 170 168 209 195 166 189 179 198 200 197 189 179 175 169 159 146 132 120 110 102
205 205 214 214 210 215 226 234 239 240 232 228 234 229 211 197 193 197 194 193 203 187 162 193 188 203 198 188 179 179 178 178 176 167 154 141 130 123
233 223 214 213 202 204 213 219 229 236 231 226 230 233 222 202 194 199 200 200 207 169 155 183 183 191 158 157 177 179 180 181 182 179 171 161 152 145
246 237 227 232 195 190 200 219 237 249 235 218 219 212 197 210 203 179 181 182 190 188 187 184 172 168 158 167 188 186 183 184 186 186 182 176 176 173
263 253 207 190 154 172 205 221 230 238 219 189 204 203 201 203 199 185 179 181 182 184 187 185 170 147 181 182 175 184 187 192 193 194 191 189 187 181
299 296 117 150 170 200 225 236 235 231 213 198 197 193 192 192 196 200 187 179 185 197 182 177 182 162 171 169 168 181 186 184 190 203 203 200 199 193
314 321 118 139 164 214 230 202 195 196 204 187 188 193 197 199 199 198 197 191 178 199 199 176 184 171 166 153 183 178 189 193 189 197 200 207 212 216
19 70 124 143 150 201 190 175 193 209 178 171 206 225 218 193 165 166 181 156 35 356 183 192 187 171 168 183 176 166 173 198 196 196 199 200 202 204
194 129 125 120 300 307 155 201 235 182 144 186 204 182 96 134 153 158 162 157 182 260 301 356 184 162 187 221 196 181 177 187 193 196 195 199 198 199
171 151 171 182 212 222 206 197 189 158 161 164 128 139 139 143 153 146 145 147 174 201 223 259 17 62 124 199 249 233 194 197 188 186 190 202 205 201
66 193 216 224 215 205 191 174 167 176 177 154 162 181 197 193 180 165 163 178 200 214 215 196 156 88 2 290 231 240 235 210 196 183 186 200 224 219
40 48 33 353 24 114 110 121 172 195 175 197 215 225 222 216 198 194 195 201 213 218 213 185 174 179 208 242 253 214 219 229 199 184 191 195 213 221
36 42 40 35 44 53 62 58 23 11 222 248 252 254 248 241 236 221 212 214 218 218 214 194 193 201 215 229 237 240 212 215 213 209 202 203 214 205
45 41 34 28 26 26 33 27 351 320 301 273 274 274 265 256 255 250 240 233 227 224 230 227 223 213 216 217 254 253 238 216 220 218 203 193 201 204
46 42 32 23 17 11 7 359 345 336 333 326 307 293 282 267 264 263 251 241 232 233 243 245 202 176 189 218 243 255 253 234 197 182 128 124 171 201
38 38 35 24 19 12 7 2 1 1 2 352 341 326 310 292 277 269 268 260 249 243 243 231 196 196 212 227 246 255 250 225 191 183 178 135 112 99